N7BDR Weather Reports


Display with metric or nautical units.
time (UTC)temp
F
wind
direction
speed
MPH
gust
MPH
rain 1hr
in
rain 24hr
in
rain mn
in
humidity
%
barometer
mb
20260831091253 62 260 0.0 0.0 0.00 0.01 0.00 72 1009.5
20260831090751 62 259 0.0 0.0 0.00 0.01 0.00 73 1009.5
20260831090234 61 259 0.0 0.0 0.00 0.01 0.00 74 1009.5
20260831085114 61 253 0.0 0.0 0.00 0.01 0.00 75 1009.4
20260831084621 61 242 0.0 0.0 0.00 0.02 0.00 75 1009.4
20260831084108 61 237 0.0 0.0 0.00 0.04 0.00 74 1009.5
20260831083557 62 237 0.0 0.0 0.00 0.04 0.00 74 1009.5
20260831083049 62 235 0.0 1.0 0.00 0.04 0.00 75 1009.5
20260831082537 61 249 0.0 1.0 0.00 0.04 0.00 76 1009.6
20260831082038 61 260 0.0 0.0 0.00 0.04 0.00 76 1009.7
20260831081546 61 261 0.0 0.0 0.00 0.04 0.00 76 1009.6
20260831081048 61 261 0.0 0.0 0.00 0.04 0.00 76 1009.6
20260831080545 61 260 0.0 2.0 0.00 0.04 0.00 76 1009.6
20260831080036 61 272 0.0 0.0 0.00 0.04 0.00 77 1009.6
20260831075527 61 276 0.0 0.0 0.00 0.04 0.00 76 1009.7
20260831075017 62 277 0.0 0.0 0.00 0.04 0.00 75 1009.7
20260831074517 62 277 0.0 0.0 0.00 0.04 0.00 75 1009.7
20260831074019 62 246 0.0 0.0 0.00 0.04 0.00 74 1009.7
20260831073526 62 245 0.0 0.0 0.00 0.04 0.00 73 1009.6
20260831073008 63 245 0.0 0.0 0.00 0.04 0.00 73 1009.6
20260831072504 63 245 0.0 0.0 0.00 0.04 0.00 71 1009.5
20260831071957 63 245 0.0 0.0 0.00 0.04 0.00 71 1009.6
20260831071450 63 230 0.0 2.0 0.00 0.04 0.00 71 1009.6
20260831070945 63 88 0.0 0.0 0.00 0.04 0.00 72 1009.7
20260831070450 63 87 0.0 0.0 0.00 0.04 0.00 71 1009.6
20260831065958 64 78 0.0 0.0 0.00 0.04 0.00 70 1009.6
20260831065458 64 78 0.0 0.0 0.00 0.04 0.00 69 1009.6
20260831064336 64 78 0.0 0.0 0.00 0.04 0.00 69 1009.4
20260831063200 64 78 0.0 0.0 0.00 0.04 0.00 70 1009.3
20260831062651 64 261 0.0 0.0 0.00 0.04 0.00 70 1009.4
20260831062132 64 261 0.0 0.0 0.00 0.04 0.00 70 1009.4
20260831061629 64 261 0.0 0.0 0.00 0.04 0.00 70 1009.3
20260831061125 64 261 0.0 0.0 0.00 0.04 0.00 70 1009.3
20260831060632 64 250 0.0 0.0 0.00 0.04 0.00 70 1009.2
20260831060115 64 250 0.0 0.0 0.00 0.04 0.00 70 1009.2
20260831055600 64 250 0.0 0.0 0.00 0.04 0.05 69 1009.1
20260831054429 65 258 0.0 1.0 0.00 0.04 0.05 70 1009.2
20260831053912 65 261 0.0 1.0 0.00 0.04 0.05 70 1009.3
20260831053413 65 263 0.0 0.0 0.00 0.04 0.05 69 1009.4
20260831052902 65 264 0.0 1.0 0.00 0.04 0.05 70 1009.3
20260831051736 64 229 0.0 0.0 0.00 0.04 0.05 70 1009.4
20260831051232 64 275 0.0 0.0 0.00 0.04 0.05 70 1009.4
20260831050113 65 276 0.0 0.0 0.00 0.04 0.05 68 1009.1
20260831044955 65 275 0.0 0.0 0.00 0.04 0.05 67 1009.1
20260831044501 66 275 0.0 0.0 0.00 0.04 0.05 67 1009.1
20260831043947 66 275 0.0 0.0 0.00 0.04 0.05 67 1009.1
20260831043444 66 275 0.0 0.0 0.00 0.04 0.05 66 1009.2
20260831042308 67 275 0.0 0.0 0.00 0.04 0.05 64 1009.1
20260831041752 67 275 0.0 0.0 0.00 0.04 0.05 63 1009.0
20260831041259 67 275 0.0 0.0 0.00 0.04 0.05 63 1009.1
20260831040143 68 275 0.0 0.0 0.00 0.04 0.05 61 1009.1
20260831035627 69 275 0.0 0.0 0.00 0.04 0.05 60 1009.1
20260831035111 69 275 0.0 0.0 0.00 0.04 0.05 57 1009.0
20260831034552 70 275 0.0 0.0 0.00 0.04 0.05 56 1009.0
20260831032806 71 268 0.0 2.0 0.00 0.04 0.05 55 1008.8
20260831032259 71 271 0.0 2.0 0.00 0.04 0.05 55 1008.7
20260831031804 71 267 0.0 2.0 0.00 0.04 0.05 55 1008.6
20260831031306 71 270 0.0 2.0 0.00 0.04 0.05 55 1008.6
20260831030811 71 270 0.0 1.0 0.00 0.04 0.05 54 1008.6
20260831030256 71 275 0.0 0.0 0.00 0.04 0.05 54 1008.5
20260831025756 72 272 0.0 0.0 0.00 0.04 0.05 54 1008.4
20260831025246 72 275 0.0 1.0 0.00 0.04 0.05 53 1008.5
20260831024756 72 264 0.0 0.0 0.00 0.04 0.05 52 1008.3
20260831024303 72 269 0.0 0.0 0.00 0.04 0.05 52 1008.3
20260831023759 72 267 0.0 0.0 0.00 0.04 0.05 52 1008.3
20260831022002 74 336 0.0 0.0 0.00 0.04 0.05 46 1008.1
20260831020828 75 336 0.0 0.0 0.00 0.04 0.05 43 1007.9
20260831015720 76 336 0.0 0.0 0.00 0.04 0.05 42 1007.8
20260831015215 76 336 0.0 0.0 0.00 0.04 0.05 42 1007.9
20260831014105 77 332 0.0 1.0 0.00 0.04 0.05 42 1007.9
20260831013600 77 349 0.0 3.0 0.00 0.04 0.05 42 1008.0
20260831013100 77 7 0.0 2.0 0.00 0.04 0.05 41 1007.9
20260831011939 78 322 0.0 3.0 0.00 0.04 0.05 42 1007.8
20260831011443 78 328 0.0 3.0 0.00 0.04 0.05 42 1008.0
20260831010328 78 341 1.0 3.0 0.00 0.04 0.05 41 1008.0
20260831005813 78 325 0.0 6.0 0.00 0.04 0.05 41 1008.0
20260831005321 78 324 1.0 6.0 0.00 0.04 0.05 42 1008.0
20260831004831 78 341 2.0 6.0 0.00 0.04 0.05 42 1008.0
20260831004322 78 37 1.0 6.0 0.00 0.04 0.05 41 1008.0
20260831003813 79 330 1.0 4.0 0.00 0.04 0.05 41 1008.1
20260831003313 79 317 2.0 5.0 0.00 0.04 0.05 41 1008.2
20260831002755 79 7 2.0 5.0 0.00 0.04 0.05 41 1008.1
20260831002254 79 322 1.0 5.0 0.00 0.04 0.05 41 1008.1
20260831001745 79 335 0.0 1.0 0.00 0.04 0.05 42 1008.0
20260831001248 79 9 1.0 5.0 0.00 0.04 0.05 42 1008.1
20260831000745 79 338 1.0 5.0 0.00 0.04 0.05 42 1008.1
20260830235642 79 328 0.0 4.0 0.00 0.04 0.05 42 1008.2
20260830235144 79 36 0.0 0.0 0.00 0.04 0.05 41 1008.2
20260830234642 80 333 1.0 6.0 0.00 0.04 0.05 42 1008.2
20260830234139 80 316 2.0 6.0 0.00 0.04 0.05 42 1008.3
20260830233004 80 350 1.0 6.0 0.00 0.04 0.05 42 1008.3
20260830231852 80 313 1.0 6.0 0.00 0.06 0.05 41 1008.5
20260830230734 80 313 1.0 7.0 0.00 0.07 0.05 43 1008.5
20260830230225 81 320 1.0 7.0 0.00 0.07 0.05 41 1008.5
20260830225709 80 306 2.0 7.0 0.00 0.07 0.05 43 1008.4
20260830225152 80 325 2.0 7.0 0.00 0.07 0.05 42 1008.5
20260830224654 80 324 2.0 8.0 0.00 0.07 0.05 43 1008.4
20260830224139 81 322 1.0 8.0 0.00 0.07 0.05 42 1008.3
20260830223639 81 344 1.0 8.0 0.00 0.07 0.05 43 1008.3
20260830222530 79 326 0.0 4.0 0.00 0.07 0.05 45 1008.5
20260830222013 79 316 1.0 4.0 0.00 0.07 0.05 44 1008.6
20260830221511 80 327 0.0 4.0 0.00 0.07 0.05 44 1008.6
20260830221017 79 257 0.0 2.0 0.00 0.07 0.05 46 1008.8
20260830220503 78 284 0.0 0.0 0.00 0.07 0.05 45 1008.9
20260830220003 78 311 0.0 0.0 0.00 0.07 0.05 45 1008.8
20260830215513 78 291 0.0 4.0 0.00 0.07 0.05 44 1008.9
20260830215011 79 284 0.0 0.0 0.00 0.07 0.05 43 1008.9
20260830213219 79 314 2.0 9.0 0.00 0.07 0.05 41 1009.0
20260830212713 79 325 3.0 9.0 0.00 0.07 0.05 41 1009.0
20260830211556 80 339 1.0 9.0 0.00 0.07 0.05 42 1009.2
20260830205743 80 262 1.0 5.0 0.00 0.07 0.05 42 1009.4
20260830205224 80 324 1.0 5.0 0.00 0.07 0.05 40 1009.3
20260830204721 81 296 0.0 4.0 0.00 0.07 0.05 42 1009.4
20260830204231 81 324 0.0 2.0 0.00 0.07 0.05 42 1009.4
20260830202445 79 5 1.0 6.0 0.00 0.08 0.05 43 1009.6
20260830201930 80 324 0.0 6.0 0.00 0.08 0.05 43 1009.7
20260830201425 80 324 0.0 3.0 0.00 0.08 0.05 42 1009.6
20260830200915 80 268 0.0 1.0 0.00 0.08 0.05 43 1009.6
20260830200403 79 273 0.0 3.0 0.00 0.08 0.05 46 1009.8
20260830195906 78 326 0.0 0.0 0.00 0.08 0.05 46 1009.9
20260830194757 76 325 1.0 8.0 0.00 0.08 0.05 47 1009.9
20260830194303 76 314 0.0 3.0 0.00 0.08 0.05 48 1010.0
20260830193801 76 320 0.0 3.0 0.00 0.08 0.05 48 1010.0
20260830193259 77 291 0.0 0.0 0.00 0.08 0.05 47 1010.1
20260830192750 77 339 0.0 8.0 0.00 0.08 0.05 45 1009.9
20260830192234 78 301 0.0 0.0 0.00 0.08 0.05 47 1009.9
20260830191744 78 277 0.0 1.0 0.00 0.08 0.05 47 1010.0
20260830191246 79 346 0.0 1.0 0.00 0.08 0.05 45 1010.0
20260830190744 80 330 0.0 3.0 0.00 0.08 0.05 43 1010.0
20260830185602 81 280 0.0 8.0 0.00 0.08 0.05 44 1010.1
20260830184443 80 264 2.0 8.0 0.00 0.08 0.05 47 1010.2
20260830182640 81 341 2.0 10.0 0.00 0.08 0.05 47 1010.3
20260830182133 80 209 2.0 10.0 0.00 0.08 0.05 47 1010.3
20260830181617 80 180 2.0 10.0 0.00 0.08 0.05 47 1010.3
20260830181112 79 265 1.0 8.0 0.00 0.08 0.05 48 1010.3
20260830180616 80 18 0.0 4.0 0.00 0.08 0.05 48 1010.3
20260830175455 80 304 0.0 3.0 0.00 0.08 0.05 48 1010.4
20260830174952 80 339 0.0 3.0 0.00 0.08 0.05 48 1010.5
20260830174449 79 257 0.0 0.0 0.00 0.09 0.05 48 1010.5
20260830173932 78 245 1.0 5.0 0.00 0.09 0.05 54 1010.5
20260830173441 77 273 1.0 5.0 0.00 0.09 0.05 50 1010.5
20260830172924 77 175 1.0 5.0 0.00 0.10 0.05 53 1010.5
20260830171812 76 249 1.0 6.0 0.00 0.16 0.05 54 1010.7
20260830171322 76 261 1.0 6.0 0.00 0.17 0.05 54 1010.7
20260830170200 76 193 2.0 10.0 0.00 0.18 0.05 53 1010.5
20260830165650 75 208 3.0 10.0 0.00 0.18 0.05 55 1010.5
20260830165135 75 168 2.0 10.0 0.00 0.18 0.05 55 1010.5
20260830164635 75 249 3.0 9.0 0.00 0.18 0.05 56 1010.4
20260830164129 74 203 4.0 11.0 0.00 0.18 0.05 57 1010.4
20260830163617 74 197 3.0 11.0 0.00 0.18 0.05 56 1010.3
20260830163101 74 162 3.0 11.0 0.00 0.18 0.05 55 1010.2
20260830162607 74 232 4.0 11.0 0.00 0.18 0.05 57 1010.2
20260830162049 73 207 5.0 16.0 0.00 0.18 0.05 56 1010.2
20260830161544 72 179 6.0 16.0 0.00 0.18 0.05 59 1010.1
20260830161038 72 185 5.0 16.0 0.00 0.18 0.05 59 1010.1
20260830160537 72 223 4.0 12.0 0.00 0.23 0.05 60 1010.1
20260830160034 72 165 4.0 12.0 0.00 0.24 0.05 60 1010.0
20260830155525 72 213 4.0 12.0 0.00 0.24 0.05 62 1010.0
20260830154351 70 232 3.0 11.0 0.00 0.24 0.05 65 1010.0
20260830153216 69 186 4.0 11.0 0.00 0.24 0.05 67 1010.0
20260830152706 68 199 4.0 11.0 0.00 0.24 0.05 68 1010.1
20260830152202 68 246 4.0 11.0 0.00 0.24 0.05 68 1010.1
20260830151702 69 197 3.0 11.0 0.00 0.24 0.05 67 1010.1
20260830150536 70 164 2.0 8.0 0.00 0.24 0.05 65 1010.1
20260830150037 70 225 1.0 6.0 0.00 0.24 0.05 66 1010.2
20260830145540 70 248 0.0 5.0 0.00 0.24 0.05 66 1010.1
20260830145039 69 229 0.0 3.0 0.00 0.24 0.05 69 1010.1
20260830143911 67 260 0.0 0.0 0.00 0.24 0.05 75 1010.1
20260830142802 66 230 0.0 2.0 0.00 0.25 0.05 77 1010.3
20260830142306 65 286 0.0 0.0 0.00 0.25 0.05 80 1010.1
20260830141806 64 268 0.0 0.0 0.00 0.28 0.05 81 1010.1
20260830141302 62 259 0.0 0.0 0.00 0.32 0.05 84 1010.1
20260830140757 61 258 0.0 0.0 0.00 0.33 0.05 85 1010.2
20260830140247 61 263 0.0 0.0 0.00 0.33 0.05 85 1010.1
20260830135740 61 263 0.0 0.0 0.00 0.33 0.05 84 1010.1
20260830135220 61 263 0.0 0.0 0.00 0.33 0.05 83 1010.2
20260830134708 61 263 0.0 0.0 0.00 0.33 0.05 83 1010.2
20260830133559 61 272 0.0 0.0 0.00 0.34 0.05 84 1010.0
20260830133055 61 266 1.0 5.0 0.00 0.33 0.05 84 1009.8
20260830132540 61 164 2.0 6.0 0.00 0.33 0.04 85 1009.6
20260830132038 61 219 2.0 6.0 0.00 0.33 0.04 85 1009.7
20260830131526 61 180 1.0 6.0 0.00 0.33 0.04 85 1009.8
20260830131006 61 214 2.0 6.0 0.00 0.33 0.04 85 1009.7
20260830130508 61 184 2.0 5.0 0.00 0.33 0.04 85 1009.6
20260830130006 61 195 0.0 3.0 0.00 0.33 0.04 85 1009.7
20260830125508 61 231 0.0 1.0 0.00 0.33 0.04 85 1009.6
20260830125008 61 247 0.0 1.0 0.00 0.33 0.04 84 1009.7
20260830124503 61 268 1.0 7.0 0.00 0.33 0.04 84 1010.0
20260830123954 61 212 2.0 7.0 0.00 0.33 0.04 85 1009.9
20260830123501 62 228 2.0 7.0 0.00 0.33 0.04 86 1009.6
20260830122942 62 227 2.0 7.0 0.00 0.33 0.04 86 1009.8
20260830122433 62 261 2.0 5.0 0.00 0.33 0.04 86 1009.6
20260830121942 62 235 2.0 5.0 0.00 0.33 0.04 85 1009.5
20260830121438 62 195 1.0 4.0 0.00 0.33 0.04 84 1009.6
20260830120937 62 253 1.0 7.0 0.00 0.33 0.04 83 1009.4
20260830120422 62 168 2.0 7.0 0.00 0.33 0.04 83 1009.1
20260830115920 62 220 1.0 7.0 0.00 0.33 0.04 83 1009.1
20260830115424 62 253 1.0 2.0 0.00 0.33 0.04 83 1009.3
20260830114319 62 182 0.0 4.0 0.00 0.33 0.04 82 1009.3
20260830113147 62 184 1.0 3.0 0.00 0.33 0.04 84 1009.6
20260830112655 63 243 0.0 2.0 0.00 0.32 0.03 86 1009.9
20260830112142 63 258 0.0 3.0 0.00 0.32 0.03 86 1009.8
20260830111632 62 273 0.0 3.0 0.00 0.32 0.03 86 1009.4
20260830111113 62 332 0.0 2.0 0.00 0.32 0.03 87 1009.3
20260830110621 62 294 0.0 0.0 0.00 0.32 0.03 87 1009.4
20260830110128 62 272 0.0 0.0 0.00 0.32 0.03 87 1009.0
20260830105627 62 261 0.0 4.0 0.00 0.32 0.03 87 1008.7
20260830105111 62 248 0.0 4.0 0.00 0.32 0.03 88 1008.8
20260830102646 61 240 1.0 0.0 0.00 0.33 0.03 87 1009.1
20260830102152 61 171 0.0 4.0 0.00 0.33 0.03 87 1009.2
20260830101636 61 238 0.0 2.0 0.00 0.33 0.03 87 1009.3
20260830101117 61 226 0.0 3.0 0.00 0.36 0.03 87 1009.4
20260830100009 61 259 0.0 0.0 0.00 0.38 0.03 85 1009.0
20260830095507 61 259 0.0 0.0 0.00 0.38 0.03 84 1008.8
20260830094949 62 259 0.0 0.0 0.00 0.38 0.03 84 1009.0
20260830094437 62 259 0.0 0.0 0.00 0.38 0.03 83 1009.1
20260830093942 62 259 0.0 0.0 0.00 0.38 0.03 82 1009.3
20260830093436 63 259 0.0 0.0 0.00 0.38 0.03 81 1009.3
20260830092921 63 243 0.0 0.0 0.00 0.38 0.03 80 1009.5
20260830092431 64 253 0.0 1.0 0.00 0.38 0.03 78 1009.5
20260830091915 64 254 0.0 0.0 0.00 0.38 0.03 76 1009.5
20260830091414 64 271 0.0 3.0 0.00 0.38 0.03 76 1009.5